Location: Gollag?dem
(16.8053°N, 80.8024°E)
Time: 17:23:14
(UTC+00:00)

ARGOS - Pass Details

Date: 13 August 2020
Orbit: 820 x 835 km, 98.5° (Epoch: 17 September)

Event Time Altitude Azimuth Distance (km) Brightness Sun altitude
Exits shadow 13:32:17 - 133° (SE) 2,793 5.3 -7.6°
Reaches altitude 10° 13:33:24 10° 127° (SE) 2,429 5.0 -7.8°
Maximum altitude 13:37:41 25° 74° (ENE) 1,628 4.3 -8.8°
Drops below altitude 10° 13:41:57 10° 21° (NNE) 2,424 5.6 -9.8°
Sets 13:44:41 0° 8° (N) 3,355 6.5 -10.4°
